Flag for U.S.A. Weather past 2 weeks in Aspen, Colorado, U.S.A.

Now
39 °F

Sunny.


Feels Like: 37 °F
Forecast: 19 / 47 °F
Wind: 3 mph from North

Location: Aspen-Pitkin County Airport

Current Time: Jan 25, 2015 at 5:26:39 PM

Latest Report: Jan 25, 2015 at 4:53 PM


Visibility: 10 mi

Pressure: 30.29 "Hg

Humidity: 55%

Dew point: 24 °F

Location of AspenLocation

Historic Weather in Aspen — Graph

°F

Aspen temperature yesterday

Maximum temperature yesterday: 32 °F (at 2:53 PM)
Minimum temperature yesterday: 6 °F (at 5:53 AM)
Average temperature yesterday: 21 °F

Past Weeks' High & Low Weather Summary

 TemperatureHumidityPressure
High46 °F (Jan 25, 2:53 PM)96% (Jan 11, 8:53 AM)30.58 "Hg (Jan 11, 8:53 AM)
Low-4 °F (Jan 22, 6:53 AM)25% (Jan 17, 3:53 PM)29.93 "Hg (Jan 11, 2:53 AM)
Average23 °F67%30.26 "Hg
* Reported Jan 10 3:53 PM — Jan 25 3:53 PM, Aspen, Weather by CustomWeather, © 2014

Note: Actual official high and low records may vary slightly from our data, if they occured in-between our weather recording intervals... More about our weather records

Advertising

Aspen weather history for previous 24 hours

 ConditionsComfort  
Time TempWeatherWind HumidityBarometerVisibility
3:53 PM
Jan 25
43 °FSunny.5 mph51%30.23 "Hg10 mi
2:53 PM46 °FSunny.7 mph44%30.22 "Hg10 mi
1:53 PM45 °FSunny.6 mph44%30.23 "Hg10 mi
12:53 PM44 °FSunny.8 mph45%30.25 "Hg10 mi
11:53 AM41 °FScattered clouds.3 mph51%30.30 "Hg10 mi
10:53 AM37 °FPartly sunny.No wind57%30.32 "Hg10 mi
9:53 AM32 °FOvercast.3 mph64%30.35 "Hg10 mi
8:53 AM29 °FOvercast.6 mph69%30.38 "Hg10 mi
7:53 AM27 °FOvercast.8 mph72%30.35 "Hg10 mi
6:53 AM26 °FPassing clouds.8 mph71%30.37 "Hg10 mi
5:53 AM23 °FPassing clouds.9 mph74%30.40 "Hg10 mi
4:53 AM24 °FClear.6 mph71%30.36 "Hg10 mi
3:53 AM28 °FOvercast.7 mph66%30.33 "Hg10 mi
2:53 AM25 °FPassing clouds.5 mph75%30.34 "Hg10 mi
1:53 AM25 °FMostly cloudy.No wind75%30.33 "Hg10 mi
12:53 AM26 °FOvercast.5 mph69%30.34 "Hg10 mi
11:53 PM
Jan 24
26 °FOvercast.3 mph71%30.35 "Hg10 mi
10:53 PM28 °FOvercast.3 mph69%30.35 "Hg10 mi
9:53 PM27 °FOvercast.No wind69%30.40 "Hg10 mi
8:53 PM27 °FOvercast.3 mph66%30.39 "Hg10 mi
7:53 PM28 °FOvercast.No wind66%30.40 "Hg10 mi
6:53 PM28 °FOvercast.No wind61%30.40 "Hg10 mi
5:53 PM27 °FOvercast.3 mph61%30.42 "Hg10 mi
Weather by CustomWeather, © 2014

See weather overviewHow to use our weather pages